Location: Unspecified
(0.0000°N, 0.0000°E)
Time: 05:22:54
(UTC+00:00)

Safir 2 - Pass Details

Date: 21 May 2026
Orbit: 804 x 808 km, 99.0° (Epoch: 11 June)

Event Time Altitude Azimuth Distance (km) Brightness Sun altitude
Rises 03:27:07 0° 45° (NE) 3,303 12.2 -34.7°
Reaches altitude 10° 03:30:19 10° 66° (ENE) 2,376 11.4 -34.0°
Maximum altitude 03:33:30 16° 103° (ESE) 1,970 10.6 -33.3°
Drops below altitude 10° 03:36:41 10° 141° (SE) 2,382 10.7 -32.6°
Enters shadow 03:37:40 - 149° (SSE) 2,638 10.8 -32.3°
